| time (UTC) | temp F | wind direction | speed MPH | gust MPH | rain 1hr in | rain 24hr in | rain mn in | humidity % | barometer mb |
| 20260504130603 | 57 | 302 | 0.0 | 1.0 | 0.00 | 0.00 | 0.00 | 79 | 1021.3 |
| 20260504130115 | 55 | 302 | 0.0 | 1.0 | 0.00 | 0.00 | 0.00 | 84 | 1021.4 |
| 20260504110525 | 41 | 275 | 0.0 | 0.0 | 0.00 | 0.00 | 0.00 | 91 | 1020.8 |
| 20260504100505 | 41 | 275 | 0.0 | 0.0 | 0.00 | 0.00 | 0.00 | 90 | 1020.6 |
| 20260504081933 | 42 | 276 | 0.0 | 0.0 | 0.00 | 0.00 | 0.00 | 90 | 1020.5 |
| 20260504081431 | 42 | 275 | 0.0 | 0.0 | 0.00 | 0.00 | 0.00 | 90 | 1020.5 |
| 20260504080929 | 42 | 275 | 0.0 | 0.0 | 0.00 | 0.00 | 0.00 | 90 | 1020.5 |
| 20260504080430 | 42 | 275 | 0.0 | 0.0 | 0.00 | 0.00 | 0.00 | 90 | 1020.7 |
| 20260504070406 | 43 | 275 | 0.0 | 0.0 | 0.00 | 0.00 | 0.00 | 89 | 1020.9 |
| 20260504050347 | 46 | 275 | 0.0 | 0.0 | 0.00 | 0.00 | 0.00 | 88 | 1021.6 |
| 20260504045848 | 46 | 275 | 0.0 | 0.0 | 0.00 | 0.00 | 0.00 | 87 | 1021.5 |
| 20260504045344 | 46 | 275 | 0.0 | 0.0 | 0.00 | 0.00 | 0.00 | 87 | 1021.5 |
| 20260504044843 | 46 | 275 | 0.0 | 0.0 | 0.00 | 0.00 | 0.00 | 87 | 1021.6 |
| 20260504044343 | 46 | 275 | 0.0 | 0.0 | 0.00 | 0.00 | 0.00 | 87 | 1021.6 |
| 20260504043843 | 46 | 275 | 0.0 | 0.0 | 0.00 | 0.00 | 0.00 | 87 | 1021.6 |
| 20260504043343 | 46 | 275 | 0.0 | 0.0 | 0.00 | 0.00 | 0.00 | 87 | 1021.5 |
| 20260504042843 | 46 | 275 | 0.0 | 0.0 | 0.00 | 0.00 | 0.00 | 87 | 1021.6 |
| 20260504042343 | 46 | 275 | 0.0 | 0.0 | 0.00 | 0.00 | 0.00 | 87 | 1021.7 |
| 20260504041840 | 46 | 275 | 0.0 | 0.0 | 0.00 | 0.00 | 0.00 | 87 | 1021.6 |
| 20260504041339 | 46 | 275 | 0.0 | 0.0 | 0.00 | 0.00 | 0.00 | 86 | 1021.8 |
| 20260504040839 | 47 | 275 | 0.0 | 0.0 | 0.00 | 0.00 | 0.00 | 86 | 1021.8 |
| 20260504040338 | 47 | 275 | 0.0 | 0.0 | 0.00 | 0.00 | 0.00 | 86 | 1021.9 |
| 20260504035839 | 47 | 275 | 0.0 | 0.0 | 0.00 | 0.00 | 0.00 | 86 | 1021.7 |
| 20260504035337 | 47 | 275 | 0.0 | 0.0 | 0.00 | 0.00 | 0.00 | 86 | 1021.7 |
| 20260504035115 | 47 | 275 | 0.0 | 0.0 | 0.00 | 0.00 | 0.00 | 86 | 1021.7 |
| 20260504034612 | 47 | 275 | 0.0 | 0.0 | 0.00 | 0.00 | 0.00 | 85 | 1021.8 |
| 20260504033833 | 47 | 275 | 0.0 | 0.0 | 0.00 | 0.00 | 0.00 | 85 | 1021.8 |
| 20260504033619 | 47 | 275 | 0.0 | 0.0 | 0.00 | 0.00 | 0.00 | 85 | 1021.7 |
| 20260504032831 | 47 | 275 | 0.0 | 0.0 | 0.00 | 0.00 | 0.00 | 85 | 1021.8 |
| 20260504032332 | 48 | 276 | 0.0 | 0.0 | 0.00 | 0.00 | 0.00 | 84 | 1021.8 |
| 20260504031828 | 48 | 275 | 0.0 | 0.0 | 0.00 | 0.00 | 0.00 | 84 | 1021.9 |
| 20260504031329 | 48 | 275 | 0.0 | 0.0 | 0.00 | 0.00 | 0.00 | 84 | 1021.7 |
| 20260504030828 | 48 | 275 | 0.0 | 0.0 | 0.00 | 0.00 | 0.00 | 83 | 1021.7 |
| 20260504030331 | 48 | 275 | 0.0 | 0.0 | 0.00 | 0.00 | 0.00 | 83 | 1021.7 |
| 20260504025827 | 49 | 275 | 0.0 | 0.0 | 0.00 | 0.00 | 0.00 | 83 | 1021.7 |
| 20260504025328 | 49 | 275 | 0.0 | 0.0 | 0.00 | 0.00 | 0.00 | 82 | 1021.7 |
| 20260504024827 | 49 | 275 | 0.0 | 0.0 | 0.00 | 0.00 | 0.00 | 82 | 1021.7 |
| 20260504024326 | 49 | 276 | 0.0 | 0.0 | 0.00 | 0.00 | 0.00 | 81 | 1021.7 |
| 20260504023825 | 49 | 275 | 0.0 | 0.0 | 0.00 | 0.00 | 0.00 | 81 | 1021.7 |
| 20260504023321 | 50 | 275 | 0.0 | 0.0 | 0.00 | 0.00 | 0.00 | 80 | 1021.6 |
| 20260504022821 | 50 | 275 | 0.0 | 0.0 | 0.00 | 0.00 | 0.00 | 80 | 1021.7 |
| 20260504022319 | 50 | 275 | 0.0 | 0.0 | 0.00 | 0.00 | 0.00 | 80 | 1021.5 |
| 20260504022106 | 50 | 275 | 0.0 | 0.0 | 0.00 | 0.00 | 0.00 | 79 | 1021.5 |
| 20260504021319 | 51 | 275 | 0.0 | 0.0 | 0.00 | 0.00 | 0.00 | 79 | 1021.4 |
| 20260504020816 | 51 | 275 | 0.0 | 0.0 | 0.00 | 0.00 | 0.00 | 78 | 1021.4 |
| 20260504020315 | 51 | 275 | 0.0 | 0.0 | 0.00 | 0.00 | 0.00 | 78 | 1021.3 |
| 20260504015811 | 51 | 275 | 0.0 | 0.0 | 0.00 | 0.00 | 0.00 | 76 | 1021.2 |
| 20260504015309 | 52 | 275 | 0.0 | 0.0 | 0.00 | 0.00 | 0.00 | 76 | 1021.1 |
| 20260504014809 | 52 | 275 | 0.0 | 0.0 | 0.00 | 0.00 | 0.00 | 76 | 1021.1 |
| 20260504014307 | 52 | 275 | 0.0 | 0.0 | 0.00 | 0.00 | 0.00 | 75 | 1021.0 |
| 20260504013803 | 53 | 275 | 0.0 | 0.0 | 0.00 | 0.00 | 0.00 | 73 | 1020.9 |
| 20260504013300 | 53 | 275 | 0.0 | 0.0 | 0.00 | 0.00 | 0.00 | 73 | 1020.9 |
| 20260504012802 | 53 | 275 | 0.0 | 0.0 | 0.00 | 0.00 | 0.00 | 72 | 1020.9 |
| 20260504012314 | 53 | 275 | 0.0 | 0.0 | 0.00 | 0.00 | 0.00 | 72 | 1020.8 |
| 20260504011805 | 53 | 275 | 0.0 | 0.0 | 0.00 | 0.00 | 0.00 | 71 | 1020.8 |
| 20260504011301 | 54 | 275 | 0.0 | 0.0 | 0.00 | 0.00 | 0.00 | 70 | 1020.7 |
| 20260504010755 | 54 | 275 | 0.0 | 0.0 | 0.00 | 0.00 | 0.00 | 69 | 1020.7 |
| 20260504010255 | 55 | 275 | 0.0 | 0.0 | 0.00 | 0.00 | 0.00 | 67 | 1020.6 |
| 20260504005755 | 55 | 275 | 0.0 | 0.0 | 0.00 | 0.00 | 0.00 | 67 | 1020.6 |
| 20260504005256 | 56 | 275 | 0.0 | 0.0 | 0.00 | 0.00 | 0.00 | 66 | 1020.5 |
| 20260504004755 | 56 | 275 | 0.0 | 0.0 | 0.00 | 0.00 | 0.00 | 64 | 1020.5 |
| 20260504004255 | 57 | 275 | 0.0 | 0.0 | 0.00 | 0.00 | 0.00 | 63 | 1020.5 |
| 20260504003758 | 57 | 275 | 0.0 | 0.0 | 0.00 | 0.00 | 0.00 | 61 | 1020.4 |
| 20260504003255 | 58 | 275 | 0.0 | 0.0 | 0.00 | 0.00 | 0.00 | 60 | 1020.3 |
| 20260504002753 | 59 | 275 | 0.0 | 0.0 | 0.00 | 0.00 | 0.00 | 59 | 1020.3 |
| 20260504002255 | 60 | 275 | 0.0 | 0.0 | 0.00 | 0.00 | 0.00 | 57 | 1020.3 |
| 20260504001759 | 60 | 275 | 0.0 | 0.0 | 0.00 | 0.00 | 0.00 | 54 | 1020.3 |
| 20260504001253 | 61 | 275 | 0.0 | 0.0 | 0.00 | 0.00 | 0.00 | 54 | 1020.3 |
| 20260504000755 | 61 | 275 | 0.0 | 0.0 | 0.00 | 0.00 | 0.00 | 52 | 1020.4 |
| 20260504000256 | 62 | 328 | 0.0 | 0.0 | 0.00 | 0.00 | 0.00 | 50 | 1020.3 |
| 20260503235753 | 63 | 328 | 0.0 | 0.0 | 0.00 | 0.00 | 0.00 | 49 | 1020.2 |
| 20260503235254 | 64 | 328 | 0.0 | 0.0 | 0.00 | 0.00 | 0.00 | 47 | 1020.2 |
| 20260503234752 | 64 | 328 | 0.0 | 1.0 | 0.00 | 0.00 | 0.00 | 44 | 1020.2 |
| 20260503234300 | 64 | 328 | 0.0 | 4.0 | 0.00 | 0.00 | 0.00 | 43 | 1020.2 |
| 20260503233859 | 65 | 35 | 1.0 | 5.0 | 0.00 | 0.00 | 0.00 | 41 | 1020.2 |
| 20260503233747 | 65 | 327 | 1.0 | 5.0 | 0.00 | 0.00 | 0.00 | 42 | 1020.2 |
| 20260503233308 | 65 | 344 | 2.0 | 5.0 | 0.00 | 0.00 | 0.00 | 41 | 1020.3 |
| 20260503232247 | 65 | 327 | 1.0 | 5.0 | 0.00 | 0.00 | 0.00 | 42 | 1020.3 |
| 20260503231747 | 65 | 15 | 1.0 | 6.0 | 0.00 | 0.00 | 0.00 | 42 | 1020.2 |
| 20260503231249 | 66 | 26 | 2.0 | 6.0 | 0.00 | 0.00 | 0.00 | 41 | 1020.3 |
| 20260503230746 | 66 | 327 | 2.0 | 5.0 | 0.00 | 0.00 | 0.00 | 40 | 1020.4 |
| 20260503230534 | 66 | 23 | 2.0 | 6.0 | 0.00 | 0.00 | 0.00 | 43 | 1020.3 |
| 20260503225749 | 66 | 32 | 2.0 | 8.0 | 0.00 | 0.00 | 0.00 | 40 | 1020.4 |
| 20260503225245 | 66 | 299 | 3.0 | 8.0 | 0.00 | 0.00 | 0.00 | 38 | 1020.4 |
| 20260503224743 | 66 | 250 | 2.0 | 6.0 | 0.00 | 0.00 | 0.00 | 37 | 1020.4 |
| 20260503224245 | 67 | 327 | 2.0 | 8.0 | 0.00 | 0.00 | 0.00 | 36 | 1020.4 |
| 20260503223742 | 67 | 244 | 3.0 | 9.0 | 0.00 | 0.00 | 0.00 | 34 | 1020.3 |
| 20260503223241 | 66 | 339 | 4.0 | 9.0 | 0.00 | 0.00 | 0.00 | 36 | 1020.4 |
| 20260503223035 | 67 | 315 | 4.0 | 10.0 | 0.00 | 0.00 | 0.00 | 35 | 1020.4 |
| 20260503222241 | 67 | 26 | 3.0 | 10.0 | 0.00 | 0.00 | 0.00 | 35 | 1020.4 |
| 20260503221916 | 68 | 319 | 3.0 | 7.0 | 0.00 | 0.00 | 0.00 | 33 | 1020.4 |
| 20260503221812 | 68 | 342 | 2.0 | 7.0 | 0.00 | 0.00 | 0.00 | 36 | 1020.5 |
| 20260503220742 | 68 | 272 | 2.0 | 8.0 | 0.00 | 0.00 | 0.00 | 34 | 1020.4 |
| 20260503220242 | 68 | 15 | 3.0 | 8.0 | 0.00 | 0.00 | 0.00 | 36 | 1020.5 |
| 20260503215743 | 68 | 27 | 4.0 | 10.0 | 0.00 | 0.00 | 0.00 | 36 | 1020.5 |
| 20260503215236 | 68 | 344 | 4.0 | 10.0 | 0.00 | 0.00 | 0.00 | 36 | 1020.4 |
| 20260503214738 | 68 | 38 | 3.0 | 8.0 | 0.00 | 0.00 | 0.00 | 36 | 1020.5 |
| 20260503214238 | 68 | 28 | 4.0 | 9.0 | 0.00 | 0.00 | 0.00 | 37 | 1020.5 |
| 20260503213736 | 68 | 319 | 4.0 | 9.0 | 0.00 | 0.00 | 0.00 | 35 | 1020.6 |
| 20260503213236 | 68 | 22 | 4.0 | 8.0 | 0.00 | 0.00 | 0.00 | 35 | 1020.5 |
| 20260503212738 | 68 | 67 | 3.0 | 8.0 | 0.00 | 0.00 | 0.00 | 35 | 1020.6 |
| 20260503212529 | 69 | 248 | 3.0 | 9.0 | 0.00 | 0.00 | 0.00 | 37 | 1020.7 |
| 20260503211737 | 68 | 329 | 4.0 | 9.0 | 0.00 | 0.00 | 0.00 | 36 | 1020.6 |
| 20260503211239 | 69 | 5 | 4.0 | 11.0 | 0.00 | 0.00 | 0.00 | 34 | 1020.7 |
| 20260503210740 | 69 | 278 | 5.0 | 11.0 | 0.00 | 0.00 | 0.00 | 37 | 1020.7 |
| 20260503210233 | 68 | 355 | 3.0 | 10.0 | 0.00 | 0.00 | 0.00 | 35 | 1020.7 |
| 20260503205736 | 69 | 328 | 3.0 | 9.0 | 0.00 | 0.00 | 0.00 | 38 | 1020.7 |
| 20260503205234 | 68 | 26 | 3.0 | 9.0 | 0.00 | 0.00 | 0.00 | 39 | 1020.7 |
| 20260503204730 | 69 | 22 | 2.0 | 9.0 | 0.00 | 0.00 | 0.00 | 39 | 1020.8 |
| 20260503204231 | 69 | 261 | 3.0 | 8.0 | 0.00 | 0.00 | 0.00 | 41 | 1020.9 |
| 20260503204026 | 69 | 298 | 4.0 | 11.0 | 0.00 | 0.00 | 0.00 | 38 | 1020.9 |
| 20260503203231 | 69 | 0 | 4.0 | 11.0 | 0.00 | 0.00 | 0.00 | 39 | 1021.0 |
| 20260503202731 | 69 | 342 | 3.0 | 10.0 | 0.00 | 0.00 | 0.00 | 37 | 1021.2 |
| 20260503202229 | 69 | 342 | 2.0 | 10.0 | 0.00 | 0.00 | 0.00 | 39 | 1021.1 |
| 20260503201731 | 69 | 242 | 3.0 | 7.0 | 0.00 | 0.00 | 0.00 | 42 | 1021.3 |
| 20260503201230 | 69 | 355 | 4.0 | 13.0 | 0.00 | 0.00 | 0.00 | 37 | 1021.3 |
| 20260503200731 | 68 | 331 | 6.0 | 13.0 | 0.00 | 0.00 | 0.00 | 39 | 1021.5 |
| 20260503200225 | 68 | 28 | 5.0 | 12.0 | 0.00 | 0.00 | 0.00 | 35 | 1021.6 |
| 20260503195720 | 68 | 31 | 4.0 | 11.0 | 0.00 | 0.00 | 0.00 | 39 | 1021.5 |
| 20260503195216 | 68 | 0 | 4.0 | 9.0 | 0.00 | 0.00 | 0.00 | 36 | 1021.7 |
| 20260503194710 | 69 | 82 | 3.0 | 8.0 | 0.00 | 0.00 | 0.00 | 38 | 1021.8 |
| 20260503194209 | 69 | 315 | 2.0 | 11.0 | 0.00 | 0.00 | 0.00 | 37 | 1021.9 |
| 20260503193707 | 69 | 275 | 2.0 | 11.0 | 0.00 | 0.00 | 0.00 | 35 | 1022.0 |
| 20260503193206 | 68 | 278 | 3.0 | 10.0 | 0.00 | 0.00 | 0.00 | 39 | 1022.0 |
| 20260503192702 | 67 | 341 | 4.0 | 10.0 | 0.00 | 0.00 | 0.00 | 39 | 1022.1 |
| 20260503192445 | 68 | 5 | 4.0 | 9.0 | 0.00 | 0.00 | 0.00 | 41 | 1022.3 |
| 20260503191705 | 69 | 346 | 3.0 | 9.0 | 0.00 | 0.00 | 0.00 | 38 | 1022.4 |
| 20260503191450 | 69 | 313 | 4.0 | 9.0 | 0.00 | 0.00 | 0.00 | 41 | 1022.5 |
| 20260503190702 | 68 | 267 | 4.0 | 9.0 | 0.00 | 0.00 | 0.00 | 43 | 1022.4 |
| 20260503190202 | 68 | 10 | 3.0 | 10.0 | 0.00 | 0.00 | 0.00 | 42 | 1022.5 |
| 20260503185716 | 67 | 244 | 3.0 | 10.0 | 0.00 | 0.00 | 0.00 | 40 | 1022.6 |
| 20260503185702 | 67 | 341 | 4.0 | 10.0 | 0.00 | 0.00 | 0.00 | 45 | 1022.6 |
| 20260503185459 | 67 | 244 | 3.0 | 10.0 | 0.00 | 0.00 | 0.00 | 40 | 1022.6 |
| 20260503184704 | 67 | 244 | 2.0 | 7.0 | 0.00 | 0.00 | 0.00 | 43 | 1022.6 |
| 20260503184201 | 67 | 33 | 3.0 | 8.0 | 0.00 | 0.00 | 0.00 | 41 | 1022.9 |
| 20260503183703 | 66 | 350 | 3.0 | 8.0 | 0.00 | 0.00 | 0.00 | 37 | 1022.9 |
| 20260503183202 | 67 | 338 | 3.0 | 8.0 | 0.00 | 0.00 | 0.00 | 39 | 1022.9 |
| 20260503182947 | 67 | 75 | 3.0 | 10.0 | 0.00 | 0.00 | 0.00 | 38 | 1023.0 |
| 20260503182203 | 67 | 305 | 4.0 | 11.0 | 0.00 | 0.00 | 0.00 | 41 | 1023.0 |
| 20260503181952 | 67 | 225 | 3.0 | 11.0 | 0.00 | 0.00 | 0.00 | 39 | 1023.0 |
| 20260503181153 | 67 | 306 | 4.0 | 10.0 | 0.00 | 0.00 | 0.00 | 43 | 1023.1 |
| 20260503180651 | 66 | 255 | 4.0 | 10.0 | 0.00 | 0.00 | 0.00 | 39 | 1023.1 |
| 20260503180141 | 65 | 316 | 4.0 | 10.0 | 0.00 | 0.00 | 0.00 | 41 | 1023.1 |
| 20260503175636 | 67 | 33 | 3.0 | 10.0 | 0.00 | 0.00 | 0.00 | 43 | 1023.0 |
| 20260503175137 | 65 | 39 | 4.0 | 9.0 | 0.00 | 0.00 | 0.00 | 44 | 1023.0 |
| 20260503174635 | 65 | 0 | 4.0 | 11.0 | 0.00 | 0.00 | 0.00 | 43 | 1023.0 |
| 20260503174419 | 66 | 349 | 4.0 | 11.0 | 0.00 | 0.00 | 0.00 | 45 | 1023.1 |
| 20260503173634 | 65 | 306 | 4.0 | 9.0 | 0.00 | 0.00 | 0.00 | 44 | 1023.2 |
| 20260503173130 | 65 | 344 | 4.0 | 9.0 | 0.00 | 0.00 | 0.00 | 45 | 1023.3 |
| 20260503172630 | 65 | 259 | 3.0 | 9.0 | 0.00 | 0.00 | 0.00 | 42 | 1023.4 |
| 20260503172130 | 65 | 301 | 3.0 | 11.0 | 0.00 | 0.00 | 0.00 | 48 | 1023.4 |
| 20260503171919 | 64 | 211 | 4.0 | 11.0 | 0.00 | 0.00 | 0.00 | 44 | 1023.6 |
| 20260503171129 | 64 | 330 | 3.0 | 10.0 | 0.00 | 0.00 | 0.00 | 49 | 1023.6 |
| 20260503170629 | 65 | 338 | 2.0 | 8.0 | 0.00 | 0.00 | 0.00 | 48 | 1023.6 |
| 20260503170129 | 64 | 238 | 2.0 | 10.0 | 0.00 | 0.00 | 0.00 | 45 | 1023.6 |
| 20260503160114 | 61 | 335 | 3.0 | 8.0 | 0.00 | 0.00 | 0.00 | 54 | 1024.3 |
| 20260503150904 | 58 | 80 | 4.0 | 9.0 | 0.00 | 0.00 | 0.00 | 61 | 1024.3 |
| 20260503150109 | 58 | 28 | 4.0 | 9.0 | 0.00 | 0.00 | 0.00 | 60 | 1024.3 |